Location: LDNL
(36.4545°S, 141.6685°E)
Time: 10:42:14
(UTC+10:00)

Oscar 11 - Pass Details

Date: 24 May 2022
Orbit: 613 x 622 km, 97.6° (Epoch: 29 June)

Event Time Altitude Azimuth Distance (km) Brightness Sun altitude
Rises 18:42:58 0° 189° (S) 2,931 10.5 -14.6°
Reaches altitude 10° 18:45:58 10° 211° (SSW) 2,013 9.9 -15.2°
Maximum altitude 18:48:29 15° 247° (WSW) 1,682 10.0 -15.7°
Drops below altitude 10° 18:50:59 10° 282° (WNW) 1,994 11.0 -16.2°
Sets 18:53:57 0° 304° (NW) 2,887 11.8 -16.8°
